Weather History for Manhattan, KS

Change the Weather History Date:

Thursday, January 31, 2013

  Actual Average Record
Temperature  
Mean Temperature 10 °F 30 °F  
Max Temperature 21 °F 42 °F 73 °F (2009)
Min Temperature -1 °F 18 °F -1 °F (2013)
Degree Days  
Heating Degree Days 55 35  
Month to date heating degree days 1009 1126  
Since 1 July heating degree days 2930 3266  
Cooling Degree Days 0 0  
Month to date cooling degree days 0 0  
Year to date cooling degree days 0 0  
Moisture  
Dew Point 6 °F    
Average Humidity 71    
Maximum Humidity 92    
Minimum Humidity 49    
Precipitation  
Precipitation T in 0.04 in 0.57 in (1998)
Month to date precipitation 0.69 0.65  
Year to date precipitation 0.69 0.65  
Sea Level Pressure  
Sea Level Pressure 30.28 in    
Wind  
Wind Speed 5 mph (NNW)    
Max Wind Speed 20 mph    
Max Gust Speed 29 mph    
Visibility 10 miles    
Events Snow    
T = Trace of Precipitation, MM = Missing Value Source: NWS Daily Summary

Daily Weather History Graph

Daily Weather History Graph

Search for Another Location

Airport:

Trip Planner

Search our weather history database for the weather conditions in past years. The results will help you decide how hot, cold, wet, or windy it might be!

Date:

Astronomy

Jan. 31, 2013 Rise Set
Actual Time 7:34 AM CST 5:46 PM CST
Civil Twilight 7:05 AM CST 6:15 PM CST
Nautical Twilight 6:33 AM CST 6:47 PM CST
Astronomical Twilight 6:02 AM CST 7:18 PM CST
Moon 10:47 PM CST 9:36 AM CST
Length of Visible Light 11h 09m
Length of Day
10h 12m
Waning Gibbous, 79% of the Moon is Illuminated
Jan 31
Waning Gibbous
Feb 3
Last Quarter
Feb 10
New
Feb 17
First Quarter
Feb 25
Full

Hourly Weather History & Observations

Time (CST) Temp. Windchill Dew Point Humidity Pressure Visibility Wind Dir Wind Speed Gust Speed Precip Events Conditions
12:52 AM 9.0 °F - 7.0 °F 92% 29.99 in 8.0 mi Calm Calm - N/A   Clear
1:52 AM 14.0 °F - 10.9 °F 88% 29.99 in 10.0 mi Calm Calm - N/A   Overcast
2:52 AM 14.0 °F - 10.9 °F 88% 29.99 in 9.0 mi Calm Calm - N/A   Clear
3:52 AM 16.0 °F - 12.9 °F 88% 30.01 in 9.0 mi Calm Calm - N/A   Clear
4:52 AM 18.0 °F - 12.9 °F 81% 30.02 in 10.0 mi Calm Calm - N/A   Overcast
5:52 AM 19.0 °F - 15.1 °F 85% 30.06 in 10.0 mi Calm Calm - N/A   Overcast
6:52 AM 19.9 °F 12.1 °F 14.0 °F 78% 30.09 in 10.0 mi NNE 5.8 mph - N/A   Mostly Cloudy
7:52 AM 19.9 °F 9.3 °F 12.9 °F 74% 30.14 in 10.0 mi NNE 9.2 mph - N/A   Overcast
8:52 AM 19.0 °F 12.3 °F 9.0 °F 65% 30.20 in 10.0 mi North 4.6 mph - N/A   Overcast
9:52 AM 19.0 °F 11.1 °F 8.1 °F 62% 30.24 in 9.0 mi North 5.8 mph - 0.00 in Snow Light Snow
10:52 AM 19.9 °F 11.1 °F 9.0 °F 62% 30.31 in 10.0 mi Variable 6.9 mph - 0.00 in   Overcast
11:52 AM 19.9 °F 7.3 °F 8.1 °F 60% 30.35 in 10.0 mi North 12.7 mph 21.9 mph N/A   Mostly Cloudy
12:52 PM 19.9 °F 9.3 °F 7.0 °F 57% 30.37 in 10.0 mi NNW 9.2 mph 19.6 mph N/A   Overcast
2:52 PM 19.0 °F 8.2 °F 3.9 °F 52% 30.38 in 10.0 mi North 9.2 mph 23.0 mph N/A   Mostly Cloudy
3:52 PM 18.0 °F 6.1 °F 3.9 °F 54% 30.40 in 10.0 mi North 10.4 mph 19.6 mph N/A   Scattered Clouds
4:52 PM 18.0 °F 7.7 °F 3.9 °F 54% 30.41 in 10.0 mi NNW 8.1 mph - N/A   Mostly Cloudy
5:52 PM 15.1 °F - 3.0 °F 59% 30.43 in 10.0 mi Calm Calm - N/A   Clear
6:52 PM 12.0 °F - 1.9 °F 64% 30.45 in 10.0 mi Calm Calm - N/A   Clear
7:52 PM 8.1 °F -0.5 °F -0.0 °F 70% 30.48 in 10.0 mi West 4.6 mph - N/A   Clear
8:52 PM 7.0 °F 0.1 °F -0.0 °F 73% 30.51 in 10.0 mi NNW 3.5 mph - N/A   Clear
9:52 PM 5.0 °F - -0.9 °F 76% 30.54 in 10.0 mi Calm Calm - N/A   Clear
10:52 PM 1.0 °F - -4.0 °F 79% 30.53 in 10.0 mi Calm Calm - N/A   Clear
11:52 PM 1.9 °F -5.6 °F -2.0 °F 83% 30.52 in 10.0 mi West 3.5 mph - N/A   Clear